Date,TemperatureHighF,TemperatureAvgF,TemperatureLowF,DewpointHighF,DewpointAvgF,DewpointLowF,HumidityHigh,HumidityAvg,HumidityLow,PressureMaxIn,PressureMinIn,WindSpeedMaxMPH,WindSpeedAvgMPH,GustSpeedMaxMPH,PrecipitationSumIn
2013-3-1,38,32,27,33,29,25,95,89,76,0.00,40.00,17,8,21,0.05
2013-3-2,44,36,31,30,23,21,84,63,39,0.00,40.00,19,12,31,0.05
2013-3-3,33,20,13,27,16,8,94,84,69,0.00,40.00,28,14,44,0.00
2013-3-4,24,15,10,16,8,4,85,74,60,0.00,40.00,16,7,21,0.13
2013-3-5,32,21,12,10,6,4,73,55,38,0.00,40.00,18,15,28,0.01
2013-3-6,33,26,23,26,18,9,91,71,51,0.00,40.00,22,15,29,0.00
2013-3-7,37,25,18,21,14,7,91,66,37,0.00,40.00,16,6,30,0.05
2013-3-8,38,25,17,21,12,7,79,59,38,0.00,40.00,18,8,25,0.01
2013-3-9,31,22,17,16,13,9,80,68,51,0.00,40.00,18,13,27,0.00
2013-3-10,37,27,19,22,14,9,91,62,32,0.00,40.00,13,9,23,0.00
2013-3-11,33,26,22,23,17,11,91,70,39,0.00,40.00,24,14,43,0.01
2013-3-12,42,30,21,30,21,8,90,71,55,0.00,40.00,14,10,25,0.01
2013-3-13,48,39,34,27,24,22,69,56,38,0.00,40.00,16,11,25,0.00
2013-3-14,50,42,37,26,21,16,54,42,30,0.00,40.00,19,13,29,0.00
2013-3-15,42,35,30,28,22,16,82,60,35,0.00,40.00,22,15,30,0.00
2013-3-16,38,30,26,24,22,19,92,72,53,0.00,40.00,17,9,29,0.00
2013-3-17,26,17,13,24,13,9,92,85,81,0.00,40.00,25,14,44,0.00
2013-3-18,24,16,11,20,12,7,86,83,81,0.00,40.00,15,11,33,0.01
2013-3-19,28,20,12,23,14,7,86,78,44,0.00,40.00,19,11,31,0.01
2013-3-20,38,28,21,33,20,5,91,74,40,0.00,40.00,31,16,54,0.01
2013-3-21,23,16,11,18,12,7,89,83,78,0.00,40.00,14,9,31,0.01
2013-3-22,21,13,10,15,8,6,83,81,76,0.00,40.00,17,8,24,0.02
2013-3-23,22,12,7,16,7,2,83,79,74,0.00,40.00,14,7,20,0.02
2013-3-24,27,15,6,19,8,1,82,77,66,0.00,40.00,6,2,12,0.01
2013-3-25,40,23,12,15,8,3,75,55,32,0.00,40.00,10,7,15,0.01
2013-3-26,43,31,23,23,17,14,87,59,36,0.00,40.00,14,7,19,0.00
2013-3-27,47,34,29,25,18,15,63,52,38,0.00,40.00,12,6,19,0.00
2013-3-28,46,39,33,35,30,26,86,70,54,0.00,40.00,12,7,24,0.00
2013-3-29,39,34,31,32,29,26,94,82,60,0.00,40.00,18,10,24,0.03
2013-3-30,48,37,28,28,22,-100,88,61,36,0.00,40.00,11,8,19,0.03
2013-3-31,54,43,34,27,20,14,57,41,21,0.00,40.00,10,6,16,0.00